Time,TemperatureF,DewpointF,PressureIn,WindDirection,WindDirectionDegrees,WindSpeedMPH,WindSpeedGustMPH,Humidity,HourlyPrecipIn,Conditions,Clouds,dailyrainin,SoftwareType,DateUTC
2013-03-10 00:01:00,25.0,18.5,23.39,NW,320,0.0,0.0,76,0.00,,,0.00,WeatherTracker,2013-03-10 07:01:00,
2013-03-10 00:11:00,26.8,20.9,23.39,WNW,300,0.0,0.0,78,0.00,,,0.00,WeatherTracker,2013-03-10 07:11:00,
2013-03-10 00:16:00,27.3,21.7,23.39,WNW,299,0.0,0.0,79,0.00,,,0.00,WeatherTracker,2013-03-10 07:16:00,
2013-03-10 00:26:00,28.0,21.5,23.39,WNW,303,0.0,0.0,76,0.00,,,0.00,WeatherTracker,2013-03-10 07:26:00,
2013-03-10 00:36:00,28.2,21.0,23.39,West,280,0.0,0.0,74,0.00,,,0.00,WeatherTracker,2013-03-10 07:36:00,
2013-03-10 00:41:00,28.6,21.0,23.39,WNW,297,0.0,0.0,73,0.00,,,0.00,WeatherTracker,2013-03-10 07:41:00,
2013-03-10 00:46:00,29.1,21.2,23.39,West,270,0.0,0.0,72,0.00,,,0.00,WeatherTracker,2013-03-10 07:46:00,
2013-03-10 00:56:00,30.0,21.1,23.39,WNW,303,0.0,0.0,69,0.00,,,0.00,WeatherTracker,2013-03-10 07:56:00,
2013-03-10 01:01:00,30.6,20.2,23.36,ESE,111,0.0,0.0,65,0.00,,,0.00,WeatherTracker,2013-03-10 08:01:00,
2013-03-10 01:11:00,30.9,19.1,23.36,NW,322,0.0,0.0,61,0.00,,,0.00,WeatherTracker,2013-03-10 08:11:00,
2013-03-10 01:16:00,31.1,19.2,23.39,North,353,0.0,0.0,61,0.00,,,0.00,WeatherTracker,2013-03-10 08:16:00,
2013-03-10 01:21:00,31.1,18.9,23.39,ENE,78,0.0,0.0,60,0.00,,,0.00,WeatherTracker,2013-03-10 08:21:00,
2013-03-10 01:31:00,31.1,18.9,23.39,North,0,0.0,0.0,60,0.00,,,0.00,WeatherTracker,2013-03-10 08:31:00,
2013-03-10 01:36:00,31.1,18.5,23.39,SE,131,0.0,0.0,59,0.00,,,0.00,WeatherTracker,2013-03-10 08:36:00,
2013-03-10 01:46:00,31.1,18.1,23.39,NW,324,0.0,0.0,58,0.00,,,0.00,WeatherTracker,2013-03-10 08:46:00,
2013-03-10 01:51:00,31.1,18.1,23.39,North,353,0.0,0.0,58,0.00,,,0.00,WeatherTracker,2013-03-10 08:51:00,
2013-03-10 01:56:00,31.1,18.5,23.39,WNW,292,0.0,0.0,59,0.00,,,0.00,WeatherTracker,2013-03-10 08:56:00,
2013-03-10 02:01:00,31.3,19.0,23.39,NE,55,0.0,0.0,60,0.00,,,0.00,WeatherTracker,2013-03-10 09:01:00,
2013-03-10 02:06:00,31.8,18.7,23.39,WNW,290,0.0,0.0,58,0.00,,,0.00,WeatherTracker,2013-03-10 09:06:00,
2013-03-10 02:11:00,31.6,19.0,23.39,ESE,112,0.0,0.0,59,0.00,,,0.00,WeatherTracker,2013-03-10 09:11:00,
2013-03-10 02:16:00,31.3,18.6,23.39,NW,312,0.0,0.0,59,0.00,,,0.00,WeatherTracker,2013-03-10 09:16:00,
2013-03-10 02:21:00,31.1,19.2,23.39,WNW,295,0.0,0.0,61,0.00,,,0.00,WeatherTracker,2013-03-10 09:21:00,
2013-03-10 02:31:00,30.9,19.5,23.39,ENE,66,0.0,0.0,62,0.00,,,0.00,WeatherTracker,2013-03-10 09:31:00,
2013-03-10 02:36:00,30.9,20.2,23.39,NNE,19,0.0,0.0,64,0.00,,,0.00,WeatherTracker,2013-03-10 09:36:00,
2013-03-10 02:46:00,31.1,20.0,23.39,SW,224,0.0,0.0,63,0.00,,,0.00,WeatherTracker,2013-03-10 09:46:00,
2013-03-10 02:51:00,31.3,19.4,23.39,North,353,0.0,0.0,61,0.00,,,0.00,WeatherTracker,2013-03-10 09:51:00,
2013-03-10 02:56:00,31.3,18.2,23.39,West,279,0.0,0.0,58,0.00,,,0.00,WeatherTracker,2013-03-10 09:56:00,
2013-03-10 03:06:00,31.3,17.4,23.39,WNW,299,0.0,0.0,56,0.00,,,0.00,WeatherTracker,2013-03-10 10:06:00,
2013-03-10 03:11:00,31.3,16.6,23.39,North,357,0.0,0.0,54,0.00,,,0.00,WeatherTracker,2013-03-10 10:11:00,
2013-03-10 03:21:00,31.1,16.4,23.39,SSE,159,0.0,0.0,54,0.00,,,0.00,WeatherTracker,2013-03-10 10:21:00,
2013-03-10 03:31:00,30.7,16.1,23.39,North,357,0.0,0.0,54,0.00,,,0.00,WeatherTracker,2013-03-10 10:31:00,
2013-03-10 03:41:00,30.4,16.2,23.39,South,169,0.0,0.0,55,0.00,,,0.00,WeatherTracker,2013-03-10 10:41:00,
2013-03-10 03:51:00,30.2,16.8,23.39,South,173,0.0,0.0,57,0.00,,,0.00,WeatherTracker,2013-03-10 10:51:00,
2013-03-10 03:56:00,30.0,16.7,23.39,SSE,166,0.0,0.0,57,0.00,,,0.00,WeatherTracker,2013-03-10 10:56:00,
2013-03-10 04:06:00,29.7,17.1,23.39,SSE,156,0.0,0.0,59,0.00,,,0.00,WeatherTracker,2013-03-10 11:06:00,
2013-03-10 04:16:00,29.5,18.5,23.39,West,265,0.0,0.0,63,0.00,,,0.00,WeatherTracker,2013-03-10 11:16:00,
2013-03-10 04:21:00,29.7,19.0,23.39,SSE,150,0.0,0.0,64,0.00,,,0.00,WeatherTracker,2013-03-10 11:21:00,
2013-03-10 04:26:00,30.0,19.3,23.39,WSW,239,0.0,0.0,64,0.00,,,0.00,WeatherTracker,2013-03-10 11:26:00,
2013-03-10 04:31:00,30.2,19.5,23.39,East,87,0.0,0.0,64,0.00,,,0.00,WeatherTracker,2013-03-10 11:31:00,
2013-03-10 04:41:00,30.4,18.9,23.39,ESE,123,0.0,0.0,62,0.00,,,0.00,WeatherTracker,2013-03-10 11:41:00,
2013-03-10 04:51:00,30.6,18.7,23.39,North,357,0.0,0.0,61,0.00,,,0.00,WeatherTracker,2013-03-10 11:51:00,
2013-03-10 04:56:00,30.6,18.3,23.39,NW,326,0.0,0.0,60,0.00,,,0.00,WeatherTracker,2013-03-10 11:56:00,
2013-03-10 05:06:00,30.6,18.3,23.39,SW,216,0.0,0.0,60,0.00,,,0.00,WeatherTracker,2013-03-10 12:06:00,
2013-03-10 05:16:00,30.6,18.3,23.39,North,5,0.0,0.0,60,0.00,,,0.00,WeatherTracker,2013-03-10 12:16:00,
2013-03-10 05:21:00,30.2,18.4,23.39,ESE,119,0.0,0.0,61,0.00,,,0.00,WeatherTracker,2013-03-10 12:21:00,
2013-03-10 05:26:00,30.2,18.0,23.39,North,353,0.0,0.0,60,0.00,,,0.00,WeatherTracker,2013-03-10 12:26:00,
2013-03-10 05:31:00,30.0,17.5,23.42,North,0,0.0,0.0,59,0.00,,,0.00,WeatherTracker,2013-03-10 12:31:00,
2013-03-10 05:36:00,30.0,17.8,23.42,NNW,337,0.0,0.0,60,0.00,,,0.00,WeatherTracker,2013-03-10 12:36:00,
2013-03-10 05:46:00,30.0,17.8,23.42,West,273,0.0,0.0,60,0.00,,,0.00,WeatherTracker,2013-03-10 12:46:00,
2013-03-10 05:51:00,30.0,17.8,23.42,WNW,301,0.0,0.0,60,0.00,,,0.00,WeatherTracker,2013-03-10 12:51:00,
2013-03-10 06:01:00,30.2,18.0,23.42,ESE,115,0.0,0.0,60,0.00,,,0.00,WeatherTracker,2013-03-10 13:01:00,
2013-03-10 06:11:00,30.2,17.6,23.42,NNE,21,0.0,0.0,59,0.00,,,0.00,WeatherTracker,2013-03-10 13:11:00,
2013-03-10 06:16:00,30.2,17.2,23.42,WNW,287,0.0,0.0,58,0.00,,,0.00,WeatherTracker,2013-03-10 13:16:00,
2013-03-10 06:26:00,30.2,15.6,23.42,North,357,0.0,0.0,54,0.00,,,0.00,WeatherTracker,2013-03-10 13:26:00,
2013-03-10 06:31:00,30.2,15.6,23.42,NW,325,0.0,0.0,54,0.00,,,0.00,WeatherTracker,2013-03-10 13:31:00,
2013-03-10 06:36:00,30.0,15.0,23.42,North,353,0.0,0.0,53,0.00,,,0.00,WeatherTracker,2013-03-10 13:36:00,
2013-03-10 06:46:00,29.8,15.2,23.42,NNW,335,0.0,0.0,54,0.00,,,0.00,WeatherTracker,2013-03-10 13:46:00,
2013-03-10 06:51:00,30.0,15.4,23.42,NNE,12,0.0,0.0,54,0.00,,,0.00,WeatherTracker,2013-03-10 13:51:00,
2013-03-10 07:01:00,29.8,14.8,23.45,North,357,0.0,0.0,53,0.00,,,0.00,WeatherTracker,2013-03-10 14:01:00,
2013-03-10 07:06:00,29.8,14.8,23.45,NW,310,0.0,0.0,53,0.00,,,0.00,WeatherTracker,2013-03-10 14:06:00,
2013-03-10 07:11:00,30.0,15.0,23.45,WNW,302,0.0,0.0,53,0.00,,,0.00,WeatherTracker,2013-03-10 14:11:00,
2013-03-10 07:16:00,29.8,15.2,23.45,NNE,28,0.0,0.0,54,0.00,,,0.00,WeatherTracker,2013-03-10 14:16:00,
2013-03-10 07:21:00,29.8,14.8,23.45,North,353,0.0,0.0,53,0.00,,,0.00,WeatherTracker,2013-03-10 14:21:00,
2013-03-10 07:31:00,30.0,14.6,23.45,NNW,340,0.0,0.0,52,0.00,,,0.00,WeatherTracker,2013-03-10 14:31:00,
2013-03-10 07:36:00,30.2,14.3,23.45,North,7,0.0,0.0,51,0.00,,,0.00,WeatherTracker,2013-03-10 14:36:00,
2013-03-10 07:46:00,30.2,13.8,23.45,NNE,19,0.0,0.0,50,0.00,,,0.00,WeatherTracker,2013-03-10 14:46:00,
2013-03-10 07:51:00,30.4,14.0,23.45,North,353,0.0,0.0,50,0.00,,,0.00,WeatherTracker,2013-03-10 14:51:00,
2013-03-10 07:56:00,30.6,13.7,23.45,North,357,0.0,0.0,49,0.00,,,0.00,WeatherTracker,2013-03-10 14:56:00,
2013-03-10 08:01:00,30.9,13.6,23.45,North,357,0.0,0.0,48,0.00,,,0.00,WeatherTracker,2013-03-10 15:01:00,
2013-03-10 08:11:00,31.5,13.6,23.45,NNW,335,0.0,0.0,47,0.00,,,0.00,WeatherTracker,2013-03-10 15:11:00,
2013-03-10 08:21:00,32.0,15.9,23.45,SE,126,0.0,0.0,51,0.00,,,0.00,WeatherTracker,2013-03-10 15:21:00,
2013-03-10 08:26:00,32.4,16.7,23.45,ESE,104,0.0,0.0,52,0.00,,,0.00,WeatherTracker,2013-03-10 15:26:00,
2013-03-10 08:36:00,32.9,17.7,23.45,NW,319,0.0,0.0,53,0.00,,,0.00,WeatherTracker,2013-03-10 15:36:00,
2013-03-10 08:41:00,33.3,17.1,23.45,ENE,73,0.0,0.0,51,0.00,,,0.00,WeatherTracker,2013-03-10 15:41:00,
2013-03-10 08:46:00,33.6,17.4,23.48,North,353,0.0,0.0,51,0.00,,,0.00,WeatherTracker,2013-03-10 15:46:00,
2013-03-10 08:51:00,33.8,17.6,23.48,NE,45,0.0,0.0,51,0.00,,,0.00,WeatherTracker,2013-03-10 15:51:00,
2013-03-10 08:56:00,34.2,17.0,23.48,NNW,338,0.0,0.0,49,0.00,,,0.00,WeatherTracker,2013-03-10 15:56:00,
2013-03-10 09:06:00,34.7,16.6,23.48,North,4,0.0,0.0,47,0.00,,,0.00,WeatherTracker,2013-03-10 16:06:00,
2013-03-10 09:11:00,34.9,15.7,23.48,ENE,72,0.0,0.0,45,0.00,,,0.00,WeatherTracker,2013-03-10 16:11:00,
2013-03-10 09:21:00,35.4,16.2,23.45,NW,326,0.0,0.0,45,0.00,,,0.00,WeatherTracker,2013-03-10 16:21:00,
2013-03-10 09:26:00,35.8,15.5,23.45,North,353,0.0,0.0,43,0.00,,,0.00,WeatherTracker,2013-03-10 16:26:00,
2013-03-10 09:31:00,36.1,15.3,23.48,North,350,0.0,0.0,42,0.00,,,0.00,WeatherTracker,2013-03-10 16:31:00,
2013-03-10 09:41:00,36.9,16.5,23.48,North,6,0.0,0.0,43,0.00,,,0.00,WeatherTracker,2013-03-10 16:41:00,
2013-03-10 09:46:00,37.2,17.3,23.48,NNW,336,0.0,0.0,44,0.00,,,0.00,WeatherTracker,2013-03-10 16:46:00,
2013-03-10 09:56:00,37.4,16.4,23.48,NNW,345,0.0,0.0,42,0.00,,,0.00,WeatherTracker,2013-03-10 16:56:00,
2013-03-10 10:06:00,37.9,16.4,23.48,NNW,346,0.0,0.0,41,0.00,,,0.00,WeatherTracker,2013-03-10 17:06:00,
2013-03-10 10:11:00,37.9,16.9,23.48,NNW,346,0.0,0.0,42,0.00,,,0.00,WeatherTracker,2013-03-10 17:11:00,
2013-03-10 10:21:00,38.3,16.7,23.48,NNW,333,0.0,0.0,41,0.00,,,0.00,WeatherTracker,2013-03-10 17:21:00,
2013-03-10 10:26:00,38.5,16.3,23.48,NNW,333,0.0,0.0,40,0.00,,,0.00,WeatherTracker,2013-03-10 17:26:00,
2013-03-10 10:36:00,38.8,17.2,23.48,NNW,335,0.0,0.0,41,0.00,,,0.00,WeatherTracker,2013-03-10 17:36:00,
2013-03-10 10:41:00,38.8,16.6,23.48,SSE,159,0.0,0.0,40,0.00,,,0.00,WeatherTracker,2013-03-10 17:41:00,
2013-03-10 10:46:00,39.2,16.9,23.48,NNW,341,0.0,0.0,40,0.00,,,0.00,WeatherTracker,2013-03-10 17:46:00,
2013-03-10 10:56:00,39.7,16.8,23.48,NNE,25,0.0,0.0,39,0.00,,,0.00,WeatherTracker,2013-03-10 17:56:00,
2013-03-10 11:01:00,39.9,17.0,23.51,SE,131,0.0,0.0,39,0.00,,,0.00,WeatherTracker,2013-03-10 18:01:00,
2013-03-10 11:06:00,39.9,17.0,23.51,North,0,2.0,3.0,39,0.00,,,0.00,WeatherTracker,2013-03-10 18:06:00,
2013-03-10 11:16:00,40.5,17.5,23.51,North,353,0.0,4.0,39,0.00,,,0.00,WeatherTracker,2013-03-10 18:16:00,
2013-03-10 11:21:00,40.6,15.8,23.51,North,357,0.0,4.0,36,0.00,,,0.00,WeatherTracker,2013-03-10 18:21:00,
2013-03-10 11:31:00,41.4,15.8,23.51,NW,323,0.0,3.0,35,0.00,,,0.00,WeatherTracker,2013-03-10 18:31:00,
2013-03-10 11:41:00,41.5,13.9,23.51,ENE,60,4.0,0.0,32,0.00,,,0.00,WeatherTracker,2013-03-10 18:41:00,
2013-03-10 11:51:00,41.2,12.1,23.51,North,353,3.0,0.0,30,0.00,,,0.00,WeatherTracker,2013-03-10 18:51:00,
2013-03-10 11:56:00,41.5,13.2,23.51,NW,305,0.0,3.0,31,0.00,,,0.00,WeatherTracker,2013-03-10 18:56:00,
2013-03-10 12:01:00,41.7,13.3,23.48,NNW,332,3.0,3.0,31,0.00,,,0.00,WeatherTracker,2013-03-10 19:01:00,
2013-03-10 12:06:00,41.7,13.3,23.48,NNW,327,2.0,4.0,31,0.00,,,0.00,WeatherTracker,2013-03-10 19:06:00,
2013-03-10 12:16:00,41.7,12.6,23.48,SE,131,3.0,3.0,30,0.00,,,0.00,WeatherTracker,2013-03-10 19:16:00,
2013-03-10 12:26:00,42.1,13.7,23.48,NW,307,0.0,3.0,31,0.00,,,0.00,WeatherTracker,2013-03-10 19:26:00,
2013-03-10 12:31:00,42.1,13.7,23.48,NNE,26,2.0,4.0,31,0.00,,,0.00,WeatherTracker,2013-03-10 19:31:00,
2013-03-10 12:36:00,42.3,13.8,23.48,WNW,293,0.0,4.0,31,0.00,,,0.00,WeatherTracker,2013-03-10 19:36:00,
2013-03-10 12:41:00,42.4,13.2,23.48,NW,323,4.0,4.0,30,0.00,,,0.00,WeatherTracker,2013-03-10 19:41:00,
2013-03-10 12:46:00,42.6,13.4,23.48,NNW,343,3.0,4.0,30,0.00,,,0.00,WeatherTracker,2013-03-10 19:46:00,
2013-03-10 12:51:00,42.8,12.8,23.48,North,0,4.0,0.0,29,0.00,,,0.00,WeatherTracker,2013-03-10 19:51:00,
2013-03-10 13:01:00,43.0,13.7,23.48,NE,45,0.0,5.0,30,0.00,,,0.00,WeatherTracker,2013-03-10 20:01:00,
2013-03-10 13:06:00,43.2,13.1,23.48,NW,309,3.0,0.0,29,0.00,,,0.00,WeatherTracker,2013-03-10 20:06:00,
2013-03-10 13:11:00,43.3,14.0,23.48,NNE,33,3.0,3.0,30,0.00,,,0.00,WeatherTracker,2013-03-10 20:11:00,
2013-03-10 13:16:00,43.3,13.2,23.48,NW,306,0.0,0.0,29,0.00,,,0.00,WeatherTracker,2013-03-10 20:16:00,
2013-03-10 13:26:00,43.7,13.6,23.48,NW,313,3.0,3.0,29,0.00,,,0.00,WeatherTracker,2013-03-10 20:26:00,
2013-03-10 13:36:00,43.2,12.3,23.48,NNW,332,3.0,4.0,28,0.00,,,0.00,WeatherTracker,2013-03-10 20:36:00,
2013-03-10 13:46:00,43.2,13.1,23.48,WNW,302,0.0,3.0,29,0.04,,,0.04,WeatherTracker,2013-03-10 20:46:00,
2013-03-10 13:51:00,43.3,13.2,23.48,ENE,72,3.0,0.0,29,0.04,,,0.04,WeatherTracker,2013-03-10 20:51:00,
2013-03-10 14:01:00,43.3,12.4,23.48,East,98,4.0,6.0,28,0.04,,,0.04,WeatherTracker,2013-03-10 21:01:00,
2013-03-10 14:06:00,43.5,12.6,23.48,WSW,257,5.0,5.0,28,0.08,,,0.08,WeatherTracker,2013-03-10 21:06:00,
2013-03-10 14:16:00,43.7,13.6,23.48,North,357,3.0,0.0,29,0.08,,,0.08,WeatherTracker,2013-03-10 21:16:00,
2013-03-10 14:21:00,43.7,12.8,23.48,North,6,3.0,3.0,28,0.08,,,0.08,WeatherTracker,2013-03-10 21:21:00,
2013-03-10 14:26:00,43.7,12.8,23.48,South,169,3.0,4.0,28,0.08,,,0.08,WeatherTracker,2013-03-10 21:26:00,
2013-03-10 14:36:00,43.9,13.7,23.48,South,178,0.0,0.0,29,0.08,,,0.08,WeatherTracker,2013-03-10 21:36:00,
2013-03-10 14:41:00,43.9,13.7,23.48,SSE,161,0.0,0.0,29,0.04,,,0.08,WeatherTracker,2013-03-10 21:41:00,
2013-03-10 14:51:00,43.5,13.4,23.48,NE,43,0.0,0.0,29,0.08,,,0.12,WeatherTracker,2013-03-10 21:51:00,
2013-03-10 15:01:00,43.5,13.4,23.48,SSW,207,0.0,0.0,29,0.12,,,0.16,WeatherTracker,2013-03-10 22:01:00,
2013-03-10 15:06:00,43.7,13.6,23.48,SSE,157,0.0,0.0,29,0.08,,,0.16,WeatherTracker,2013-03-10 22:06:00,
2013-03-10 15:11:00,43.7,13.6,23.48,SW,222,0.0,0.0,29,0.08,,,0.16,WeatherTracker,2013-03-10 22:11:00,
2013-03-10 15:26:00,43.3,13.2,23.48,WNW,286,0.0,0.0,29,0.08,,,0.16,WeatherTracker,2013-03-10 22:26:00,
2013-03-10 15:31:00,43.2,13.9,23.48,WNW,294,0.0,0.0,30,0.08,,,0.16,WeatherTracker,2013-03-10 22:31:00,
2013-03-10 15:36:00,43.2,13.1,23.48,NNW,332,4.0,0.0,29,0.12,,,0.20,WeatherTracker,2013-03-10 22:36:00,
2013-03-10 15:46:00,43.2,13.1,23.48,NW,324,0.0,0.0,29,0.12,,,0.20,WeatherTracker,2013-03-10 22:46:00,
2013-03-10 15:56:00,42.6,13.4,23.48,NW,315,0.0,3.0,30,0.08,,,0.20,WeatherTracker,2013-03-10 22:56:00,
2013-03-10 16:01:00,42.4,12.5,23.48,NE,42,2.0,0.0,29,0.04,,,0.20,WeatherTracker,2013-03-10 23:01:00,
2013-03-10 16:11:00,43.0,12.9,23.48,NNE,31,0.0,3.0,29,0.04,,,0.20,WeatherTracker,2013-03-10 23:11:00,
2013-03-10 16:16:00,43.0,12.9,23.48,SE,141,0.0,0.0,29,0.04,,,0.20,WeatherTracker,2013-03-10 23:16:00,
2013-03-10 16:26:00,42.8,12.0,23.48,NNW,341,0.0,0.0,28,0.04,,,0.20,WeatherTracker,2013-03-10 23:26:00,
2013-03-10 16:31:00,42.8,12.8,23.48,NE,41,0.0,3.0,29,0.04,,,0.20,WeatherTracker,2013-03-10 23:31:00,
2013-03-10 16:36:00,42.6,12.6,23.48,East,83,0.0,0.0,29,0.04,,,0.24,WeatherTracker,2013-03-10 23:36:00,
2013-03-10 16:46:00,42.6,12.6,23.48,WNW,289,2.0,0.0,29,0.04,,,0.24,WeatherTracker,2013-03-10 23:46:00,
2013-03-10 16:56:00,42.3,12.3,23.48,NNW,339,3.0,3.0,29,0.04,,,0.24,WeatherTracker,2013-03-10 23:56:00,
2013-03-10 17:01:00,42.1,11.4,23.48,NW,312,0.0,4.0,28,0.04,,,0.24,WeatherTracker,2013-03-11 00:01:00,
2013-03-10 17:06:00,42.1,12.1,23.48,NNW,332,0.0,0.0,29,0.04,,,0.24,WeatherTracker,2013-03-11 00:06:00,
2013-03-10 17:16:00,41.5,11.7,23.48,WNW,290,0.0,0.0,29,0.04,,,0.24,WeatherTracker,2013-03-11 00:16:00,
2013-03-10 17:21:00,41.5,11.7,23.48,NNW,345,0.0,0.0,29,0.04,,,0.24,WeatherTracker,2013-03-11 00:21:00,
2013-03-10 17:26:00,41.5,10.9,23.48,WNW,301,0.0,0.0,28,0.04,,,0.24,WeatherTracker,2013-03-11 00:26:00,
2013-03-10 17:36:00,40.8,11.8,23.48,WNW,297,0.0,0.0,30,0.04,,,0.24,WeatherTracker,2013-03-11 00:36:00,
2013-03-10 17:41:00,40.3,12.1,23.48,WNW,295,0.0,0.0,31,0.00,,,0.24,WeatherTracker,2013-03-11 00:41:00,
2013-03-10 17:51:00,39.9,11.0,23.48,WNW,300,0.0,0.0,30,0.00,,,0.24,WeatherTracker,2013-03-11 00:51:00,
2013-03-10 17:56:00,39.9,11.0,23.48,WSW,237,0.0,0.0,30,0.00,,,0.24,WeatherTracker,2013-03-11 00:56:00,
2013-03-10 18:01:00,39.7,10.9,23.51,WNW,296,0.0,0.0,30,0.00,,,0.24,WeatherTracker,2013-03-11 01:01:00,
2013-03-10 18:11:00,38.8,12.2,23.51,SW,220,0.0,0.0,33,0.00,,,0.24,WeatherTracker,2013-03-11 01:11:00,
2013-03-10 18:22:00,38.1,12.3,23.51,SW,220,0.0,0.0,34,0.00,,,0.24,WeatherTracker,2013-03-11 01:22:00,
2013-03-10 18:31:00,37.4,11.0,23.48,SW,220,0.0,0.0,33,0.00,,,0.24,WeatherTracker,2013-03-11 01:31:00,
2013-03-10 18:36:00,37.2,11.5,23.48,SW,220,0.0,0.0,34,0.00,,,0.24,WeatherTracker,2013-03-11 01:36:00,
2013-03-10 18:41:00,37.0,11.3,23.48,SW,220,0.0,0.0,34,0.00,,,0.24,WeatherTracker,2013-03-11 01:41:00,
2013-03-10 18:51:00,36.3,12.0,23.51,West,272,0.0,0.0,36,0.00,,,0.24,WeatherTracker,2013-03-11 01:51:00,
2013-03-10 19:01:00,35.8,13.8,23.51,West,272,0.0,0.0,40,0.00,,,0.24,WeatherTracker,2013-03-11 02:01:00,
2013-03-10 19:06:00,35.6,13.7,23.51,West,272,0.0,0.0,40,0.00,,,0.24,WeatherTracker,2013-03-11 02:06:00,
2013-03-10 19:11:00,35.2,13.9,23.51,West,272,0.0,0.0,41,0.00,,,0.24,WeatherTracker,2013-03-11 02:11:00,
2013-03-10 19:16:00,35.1,13.8,23.51,West,272,0.0,0.0,41,0.00,,,0.24,WeatherTracker,2013-03-11 02:16:00,
2013-03-10 19:26:00,34.5,13.3,23.51,West,272,0.0,0.0,41,0.00,,,0.24,WeatherTracker,2013-03-11 02:26:00,
2013-03-10 19:36:00,33.8,12.6,23.51,West,272,0.0,0.0,41,0.00,,,0.24,WeatherTracker,2013-03-11 02:36:00,
2013-03-10 19:41:00,33.4,12.8,23.51,West,272,0.0,0.0,42,0.00,,,0.24,WeatherTracker,2013-03-11 02:41:00,
2013-03-10 19:51:00,32.5,13.1,23.51,West,272,0.0,0.0,44,0.00,,,0.24,WeatherTracker,2013-03-11 02:51:00,
2013-03-10 20:01:00,32.5,13.6,23.51,West,276,0.0,0.0,45,0.00,,,0.24,WeatherTracker,2013-03-11 03:01:00,
2013-03-10 20:11:00,32.5,14.1,23.51,West,276,0.0,0.0,46,0.00,,,0.24,WeatherTracker,2013-03-11 03:11:00,
2013-03-10 20:21:00,31.5,13.1,23.51,West,276,0.0,0.0,46,0.00,,,0.24,WeatherTracker,2013-03-11 03:21:00,
2013-03-10 20:31:00,31.1,13.3,23.51,South,190,0.0,0.0,47,0.00,,,0.24,WeatherTracker,2013-03-11 03:31:00,
2013-03-10 20:36:00,30.9,13.6,23.51,South,190,0.0,0.0,48,0.00,,,0.24,WeatherTracker,2013-03-11 03:36:00,
2013-03-10 20:41:00,30.7,13.9,23.51,South,190,0.0,0.0,49,0.00,,,0.24,WeatherTracker,2013-03-11 03:41:00,
2013-03-10 20:51:00,29.7,13.8,23.51,South,190,0.0,0.0,51,0.00,,,0.24,WeatherTracker,2013-03-11 03:51:00,
2013-03-10 20:56:00,29.7,15.1,23.51,South,190,0.0,0.0,54,0.00,,,0.24,WeatherTracker,2013-03-11 03:56:00,
2013-03-10 21:01:00,29.7,14.7,23.54,ESE,122,3.0,3.0,53,0.00,,,0.24,WeatherTracker,2013-03-11 04:01:00,
2013-03-10 21:06:00,29.5,14.5,23.54,East,98,0.0,0.0,53,0.00,,,0.24,WeatherTracker,2013-03-11 04:06:00,
2013-03-10 21:11:00,29.3,14.3,23.54,WNW,292,0.0,0.0,53,0.00,,,0.24,WeatherTracker,2013-03-11 04:11:00,
2013-03-10 21:16:00,29.1,14.1,23.54,NW,317,0.0,0.0,53,0.00,,,0.24,WeatherTracker,2013-03-11 04:16:00,
2013-03-10 21:21:00,29.1,14.1,23.54,WSW,246,0.0,0.0,53,0.00,,,0.24,WeatherTracker,2013-03-11 04:21:00,
2013-03-10 21:26:00,29.1,14.6,23.54,NW,313,0.0,0.0,54,0.00,,,0.24,WeatherTracker,2013-03-11 04:26:00,
2013-03-10 21:31:00,29.3,13.9,23.54,WNW,301,0.0,0.0,52,0.00,,,0.24,WeatherTracker,2013-03-11 04:31:00,
2013-03-10 21:41:00,29.7,13.8,23.54,South,175,0.0,0.0,51,0.00,,,0.24,WeatherTracker,2013-03-11 04:41:00,
2013-03-10 21:46:00,29.7,14.2,23.54,SW,217,0.0,0.0,52,0.00,,,0.24,WeatherTracker,2013-03-11 04:46:00,
2013-03-10 21:56:00,28.8,13.4,23.54,NW,305,0.0,0.0,52,0.00,,,0.24,WeatherTracker,2013-03-11 04:56:00,
2013-03-10 22:01:00,28.8,13.8,23.54,West,262,0.0,0.0,53,0.00,,,0.24,WeatherTracker,2013-03-11 05:01:00,
2013-03-10 22:06:00,28.6,13.6,23.54,WNW,293,0.0,0.0,53,0.00,,,0.24,WeatherTracker,2013-03-11 05:06:00,
2013-03-10 22:16:00,28.4,13.5,23.54,WNW,293,0.0,0.0,53,0.00,,,0.24,WeatherTracker,2013-03-11 05:16:00,
2013-03-10 22:21:00,28.2,13.3,23.54,WNW,293,0.0,0.0,53,0.00,,,0.24,WeatherTracker,2013-03-11 05:21:00,
2013-03-10 22:26:00,28.2,13.3,23.54,WNW,293,0.0,0.0,53,0.00,,,0.24,WeatherTracker,2013-03-11 05:26:00,
2013-03-10 22:31:00,28.2,13.3,23.54,South,173,0.0,0.0,53,0.00,,,0.24,WeatherTracker,2013-03-11 05:31:00,
2013-03-10 22:36:00,27.9,13.0,23.54,SSE,152,0.0,0.0,53,0.00,,,0.24,WeatherTracker,2013-03-11 05:36:00,
2013-03-10 22:46:00,27.5,12.2,23.54,West,261,0.0,0.0,52,0.00,,,0.24,WeatherTracker,2013-03-11 05:46:00,
2013-03-10 22:56:00,27.5,12.2,23.54,SW,234,0.0,0.0,52,0.00,,,0.24,WeatherTracker,2013-03-11 05:56:00,
2013-03-10 23:06:00,27.1,11.9,23.54,SSW,192,0.0,0.0,52,0.00,,,0.24,WeatherTracker,2013-03-11 06:06:00,
2013-03-10 23:16:00,26.4,11.6,23.54,SSW,192,0.0,0.0,53,0.00,,,0.24,WeatherTracker,2013-03-11 06:16:00,
2013-03-10 23:26:00,26.1,11.7,23.54,South,191,0.0,0.0,54,0.00,,,0.24,WeatherTracker,2013-03-11 06:26:00,
2013-03-10 23:31:00,25.5,11.2,23.54,South,191,0.0,0.0,54,0.00,,,0.24,WeatherTracker,2013-03-11 06:31:00,
2013-03-10 23:41:00,25.3,11.5,23.54,South,191,0.0,0.0,55,0.00,,,0.24,WeatherTracker,2013-03-11 06:41:00,
2013-03-10 23:51:00,25.2,11.7,23.54,ESE,123,0.0,0.0,56,0.00,,,0.24,WeatherTracker,2013-03-11 06:51:00,
2013-03-10 23:56:00,25.0,11.5,23.54,SE,129,0.0,0.0,56,0.00,,,0.24,WeatherTracker,2013-03-11 06:56:00,